Concordia, KS

10:17 AM CDT on April 30, 2017 (GMT -0500)
Blosser Municipal

Weather History for KCNK - February, 2015

Change the Weather History Date:

Friday, February 6, 2015

  Actual Average Record
Temperature  
Mean Temperature 46 °F 30 °F  
Max Temperature 63 °F 41 °F 72 °F (2009)
Min Temperature 29 °F 20 °F -10 °F (1905)
Degree Days  
Heating Degree Days 19 35  
Month to date heating degree days 231 210  
Since 1 July heating degree days 3396 3514  
Cooling Degree Days 0 0  
Month to date cooling degree days 0 0  
Year to date cooling degree days 0 0  
Moisture  
Dew Point 31 °F    
Average Humidity 61    
Maximum Humidity 85    
Minimum Humidity 36    
Precipitation  
Precipitation 0.00 in 0.02 in 1.21 in (1928)
Month to date precipitation 0.17 0.15  
Year to date precipitation 1.34 0.73  
Snow  
Snow 0.00 in 0.20 in 2.90 in (1997)
Month to date snowfall 0.9 1.3  
Year to date snowfall 3.2 7.0  
Since 1 July snowfall 9.3 13.5  
Snow Depth 0.00 in    
Sea Level Pressure  
Sea Level Pressure 29.97 in    
Wind  
Wind Speed 11 mph (SSW)    
Max Wind Speed 21 mph    
Max Gust Speed 27 mph    
Visibility 10 miles    
Events      
T = Trace of Precipitation, MM = Missing Value Source: NWS Daily Summary

Daily Weather History Graph

Daily Weather History Graph

Search for Another Location

Airport or City:

Trip Planner

Search our weather history database for the weather conditions in past years. The results will help you decide how hot, cold, wet, or windy it might be!

Date:

Astronomy

Feb. 06, 2015 Rise Set
Actual Time 7:33 AM CST 5:56 PM CST
Civil Twilight 7:05 AM CST 6:24 PM CST
Nautical Twilight 6:33 AM CST 6:56 PM CST
Astronomical Twilight 6:01 AM CST 7:27 PM CST
Moon 8:46 PM CST (2/6) 8:41 AM CST (2/6)
Length of Visible Light 11h 19m
Length of Day
10h 23m
Waning Gibbous, 93% of the Moon is Illuminated
Feb 6
Waning Gibbous
Feb 11
Last Quarter
Feb 18
New
Feb 25
First Quarter
Mar 5
Full

Hourly Weather History & Observations

Time (CST) Temp. Windchill Dew Point Humidity Pressure Visibility Wind Dir Wind Speed Gust Speed Precip Events Conditions
12:55 AM 30.0 °F 20.5 °F 21.0 °F 69% 30.13 in 10.0 mi SSW 11.5 mph - N/A   Clear
1:55 AM 30.0 °F 21.7 °F 21.9 °F 72% 30.10 in 10.0 mi South 9.2 mph - N/A   Clear
2:55 AM 30.0 °F 20.0 °F 21.9 °F 72% 30.08 in 10.0 mi South 12.7 mph - N/A   Clear
3:55 AM 30.0 °F 20.5 °F 24.1 °F 79% 30.05 in 10.0 mi SSW 11.5 mph - N/A   Clear
4:55 AM 30.0 °F 21.7 °F 24.1 °F 79% 30.04 in 10.0 mi SSW 9.2 mph - N/A   Clear
5:55 AM 30.0 °F 20.5 °F 26.1 °F 85% 30.02 in 10.0 mi SSW 11.5 mph - N/A   Clear
6:55 AM 30.9 °F 22.8 °F 26.1 °F 82% 30.02 in 10.0 mi SSW 9.2 mph - N/A   Clear
7:55 AM 30.9 °F 21.7 °F 27.0 °F 85% 30.01 in 10.0 mi SSW 11.5 mph - N/A   Clear
8:55 AM 35.1 °F 27.9 °F 28.9 °F 78% 30.01 in 10.0 mi South 9.2 mph - N/A   Clear
9:55 AM 39.0 °F 31.8 °F 30.0 °F 70% 30.02 in 10.0 mi SW 11.5 mph - N/A   Clear
10:55 AM 43.0 °F 37.2 °F 32.0 °F 65% 30.01 in 10.0 mi SW 10.4 mph - N/A   Clear
11:55 AM 48.2 °F - 33.8 °F 58% 29.99 in 10.0 mi SW 9.2 mph - N/A   Clear
12:55 PM 53.1 °F - 35.1 °F 50% 29.99 in 10.0 mi SW 12.7 mph - N/A   Clear
1:55 PM 57.9 °F - 36.0 °F 44% 29.95 in 10.0 mi SSW 10.4 mph - N/A   Clear
2:55 PM 62.1 °F - 36.0 °F 38% 29.93 in 10.0 mi SSW 10.4 mph - N/A   Clear
3:55 PM 61.0 °F - 37.0 °F 41% 29.91 in 10.0 mi SSW 9.2 mph - N/A   Clear
4:55 PM 62.1 °F - 36.0 °F 38% 29.90 in 10.0 mi SW 3.5 mph - N/A   Clear
5:55 PM 55.0 °F - 37.0 °F 51% 29.91 in 10.0 mi South 4.6 mph - N/A   Clear
6:55 PM 48.0 °F - 37.0 °F 66% 29.91 in 10.0 mi SSE 4.6 mph - N/A   Clear
7:55 PM 46.9 °F - 36.0 °F 66% 29.90 in 10.0 mi SSW 13.8 mph - N/A   Clear
8:55 PM 48.9 °F - 36.0 °F 61% 29.88 in 10.0 mi SSW 18.4 mph - N/A   Clear
9:55 PM 46.0 °F 39.0 °F 35.1 °F 66% 29.87 in 10.0 mi SSW 17.3 mph - N/A   Clear
10:55 PM 46.0 °F 38.5 °F 35.1 °F 66% 29.85 in 10.0 mi SSW 19.6 mph - N/A   Clear
11:55 PM 45.0 °F 37.4 °F 36.0 °F 71% 29.83 in 10.0 mi SSW 18.4 mph - N/A   Clear